STARLINK-30956, 58481

Orbit data source: Space-Track

STARLINK-30956, 58481 is a payload satellite owned by SpaceX/Seattle (US) in LEO that was launched on Sun, 03 Dec 2023 UTC via an FALCON 9 launch vehicle from the Air Force Eastern Test Range (AFETR). Payload-class satellites include a variety of spacecraft equipped with specific instruments for various scientific and technological missions. These include communications satellites like Starlink; space stations such as the ISS; scientific satellites like the Hubble; Earth observation satellites from companies like Planet Labs, Umbra, and HawkEye 360; GPS; miniature CubeSats for education and research; and military/defense satellites.

Loading next visibility...
Identifier
58481, 2023-186J
Orbit
LEO
Country
Flag of USUS
Related business
Manufacturer
SpaceX/Seattle
Mission
Operational Commercial Communications
Bus & Motor
STARLINK V2M, Unknown motor
Mass
730 kg wet, ~700 kg dry
Launch date (UTC)
2023-12-03 (3 years ago)
Launch vehicle
FALCON 9
Launch site
Air Force Eastern Test Range (AFETR)
Object type
Payload
Rocket body
Debris
Shape & HBR
Box + 2 Pan, 17.7 m
Radar Cross Section
33.884 m², Large (>1 m²)

Expand to show TLE details & history
Last TLE update: 2 days ago

TLE from 2 days ago
0 STARLINK-30956
1 58481U 23186J   26171.09438272  .00000745  00000-0  36605-4 0  9998
2 58481  43.0032 182.9521 0001594 276.3326  83.7345 15.27577501141811
Epoch: 2026-06-20T02:15Z
TLE epoch observation values (Epoch: 2026-06-20T02:15:54.667Z)
Latitude
0.00006°
Longitude
-119.33955°
Altitude
482.713 km
Speed
7.626 km/s
True Right ascension
12h 11m 48s
True Declination
0° 00' 00"
Sunlit
Object was in daylight at epoch
Visualization orbit readout
Latitude
Unknown
Longitude
Unknown
Altitude
Unknown
Speed
Unknown
Apparent Right ascension
Unknown
Apparent Declination
Unknown
Sunlit
N/A
Visualization observer readout
Local Sidereal Time
21:24:23
Azimuth
Unknown
Elevation
Unknown
Doppler factor
Unknown
Orbital elements
Apogee altitude
486.095 km
Perigee altitude
483.907 km
Semi-major axis
6,863.138 km
Eccentricity
0.00016
Inclination
43.0032°
RAAN
182.9521°
Arg. of periapsis
276.3326°
True anomaly
83.75266°
Mean anomaly
83.7345°
Eccentric anomaly
83.74358°
Mean motion
3.81732 °/min
Orbital period
94.31 mins
BSTAR
0.000036605
Loading maneuver chart data...
Computing Atmospheric mass density...
Loading historical data...
Loading historical data...
Loading historical data...
Loading historical data...
Loading historical data...
Loading historical data...
Loading historical data...

Documentation

Showing up to 5 results
|